FIN852 LKPR-EFHK

Flight info

Callsign FIN852
Flight time N/A
Altitude 41000
Route ARTUP4H ARTUP DCT TOMTI DCT DIMEX DCT RIVDI/N0491F430 DCT PENOR/N0486F410 DCT ALAMI DCT OKEVU DCT EVADI Y370 DIVAM DIVAM5A
Aircraft A359/H-VGDW/C

Departure

Time 2026-05-06 19:28
Airport Václav Havel Airport Prague (LKPR)

Arrival

Time N/A
Airport Helsinki Vantaa Airport (EFHK)
Time Latitude Longitude Altitude Speed Heading
2026-05-06 18:40 50.11095 14.26927 1153 ft 0 kts 244°
2026-05-06 19:14 50.11097 14.26935 1175 ft 4 kts 244°
2026-05-06 19:14 50.11109 14.26973 1175 ft 4 kts 247°
2026-05-06 19:15 50.11117 14.27012 1175 ft 4 kts 271°
2026-05-06 19:15 50.11111 14.27038 1175 ft 2 kts 334°
2026-05-06 19:15 50.11126 14.27027 1175 ft 4 kts 334°
2026-05-06 19:15 50.11132 14.27023 1175 ft 0 kts 334°
2026-05-06 19:20 50.11136 14.27019 1175 ft 4 kts 335°
2026-05-06 19:20 50.11175 14.26991 1175 ft 8 kts 335°
2026-05-06 19:20 50.11232 14.26947 1174 ft 10 kts 327°
2026-05-06 19:21 50.11252 14.26842 1173 ft 12 kts 253°
2026-05-06 19:21 50.11214 14.26708 1171 ft 15 kts 245°
2026-05-06 19:21 50.11165 14.26540 1170 ft 19 kts 244°
2026-05-06 19:21 50.11103 14.26338 1167 ft 22 kts 244°
2026-05-06 19:22 50.11040 14.26128 1166 ft 20 kts 245°
2026-05-06 19:22 50.10966 14.25926 1164 ft 22 kts 225°
2026-05-06 19:22 50.10849 14.25792 1168 ft 21 kts 215°
2026-05-06 19:22 50.10742 14.25679 1172 ft 15 kts 213°
2026-05-06 19:23 50.10677 14.25560 1175 ft 15 kts 272°
2026-05-06 19:23 50.10729 14.25383 1167 ft 21 kts 298°
2026-05-06 19:23 50.10781 14.25236 1161 ft 0 kts 297°
2026-05-06 19:26 50.10800 14.25168 1160 ft 17 kts 290°
2026-05-06 19:26 50.10819 14.24967 1158 ft 21 kts 270°
2026-05-06 19:26 50.10805 14.24716 1160 ft 17 kts 250°
2026-05-06 19:27 50.10756 14.24675 1164 ft 6 kts 165°
2026-05-06 19:27 50.10695 14.24757 1163 ft 15 kts 130°
2026-05-06 19:27 50.10536 14.25087 1168 ft 72 kts 127°
2026-05-06 19:27 50.10090 14.26009 1197 ft 138 kts 127°
2026-05-06 19:28 50.09410 14.27383 1404 ft 177 kts 129°
2026-05-06 19:28 50.08613 14.28796 2340 ft 168 kts 132°
2026-05-06 19:28 50.07810 14.30188 2878 ft 186 kts 131°
2026-05-06 19:28 50.06995 14.31920 3294 ft 209 kts 123°
2026-05-06 19:29 50.06433 14.33229 3620 ft 223 kts 124°
2026-05-06 19:29 50.05166 14.36036 4281 ft 251 kts 127°
2026-05-06 19:29 50.04097 14.38305 4805 ft 267 kts 128°
2026-05-06 19:29 50.02974 14.40646 4974 ft 271 kts 128°
2026-05-06 19:30 50.01843 14.42990 4999 ft 271 kts 128°
2026-05-06 19:30 50.00711 14.45325 4995 ft 271 kts 129°
2026-05-06 19:30 49.99571 14.47672 5021 ft 271 kts 129°
2026-05-06 19:30 49.98530 14.50110 5311 ft 274 kts 119°
2026-05-06 19:31 49.97946 14.52951 6035 ft 280 kts 100°
2026-05-06 19:31 49.98009 14.55991 6988 ft 287 kts 80°
2026-05-06 19:31 50.00145 14.61242 8854 ft 301 kts 38°
2026-05-06 19:32 50.01852 14.63228 9860 ft 306 kts 35°
2026-05-06 19:32 50.03624 14.65217 10477 ft 324 kts 35°
2026-05-06 19:32 50.05505 14.67355 10924 ft 346 kts 36°
2026-05-06 19:32 50.07481 14.69624 11634 ft 357 kts 36°
2026-05-06 19:33 50.09472 14.71923 12501 ft 364 kts 36°
2026-05-06 19:33 50.11546 14.74325 13378 ft 370 kts 36°
2026-05-06 19:33 50.13603 14.76712 14168 ft 376 kts 36°
2026-05-06 19:33 50.15734 14.79144 14886 ft 383 kts 34°
2026-05-06 19:34 50.18096 14.81146 15476 ft 389 kts 20°
2026-05-06 19:34 50.20703 14.82190 15757 ft 388 kts
2026-05-06 19:34 50.23399 14.82678 16038 ft 392 kts
2026-05-06 19:34 50.26107 14.83426 16738 ft 398 kts 14°
2026-05-06 19:35 50.28750 14.84778 17571 ft 403 kts 18°
2026-05-06 19:35 50.31393 14.86349 18312 ft 409 kts 20°
2026-05-06 19:35 50.34043 14.88060 19018 ft 414 kts 22°
2026-05-06 19:35 50.36714 14.89850 19718 ft 420 kts 22°
2026-05-06 19:36 50.39410 14.91677 20467 ft 424 kts 22°
2026-05-06 19:36 50.42138 14.93524 21192 ft 429 kts 22°
2026-05-06 19:36 50.44866 14.95362 21866 ft 435 kts 22°
2026-05-06 19:36 50.47696 14.97258 22585 ft 440 kts 22°
2026-05-06 19:37 50.50496 14.99129 23265 ft 445 kts 22°
2026-05-06 19:37 50.53376 15.01052 23858 ft 450 kts 22°
2026-05-06 19:37 50.56293 15.03000 24465 ft 454 kts 21°
2026-05-06 19:37 50.58222 15.04289 24887 ft 456 kts 21°
2026-05-06 19:38 50.62154 15.06920 25658 ft 462 kts 22°
2026-05-06 19:38 50.65084 15.08885 26264 ft 465 kts 22°
2026-05-06 19:38 50.68073 15.10893 26893 ft 468 kts 21°
2026-05-06 19:38 50.71072 15.12910 27497 ft 471 kts 21°
2026-05-06 19:39 50.74104 15.14952 28092 ft 475 kts 21°
2026-05-06 19:39 50.77161 15.17014 28605 ft 480 kts 21°
2026-05-06 19:39 50.80247 15.19099 28768 ft 482 kts 21°
2026-05-06 19:39 50.83324 15.21181 28794 ft 482 kts 22°
2026-05-06 19:40 50.89548 15.25399 29373 ft 489 kts 22°
2026-05-06 19:40 50.92674 15.27531 29958 ft 491 kts 22°
2026-05-06 19:40 50.95704 15.30091 30424 ft 495 kts 32°
2026-05-06 19:41 50.98542 15.33218 30823 ft 499 kts 35°
2026-05-06 19:41 51.01351 15.36518 31233 ft 503 kts 37°
2026-05-06 19:41 51.04140 15.39896 31634 ft 508 kts 37°
2026-05-06 19:41 51.06952 15.43347 31990 ft 512 kts 37°
2026-05-06 19:42 51.09771 15.46820 32379 ft 515 kts 37°
2026-05-06 19:42 51.12618 15.50325 32771 ft 518 kts 37°
2026-05-06 19:42 51.15485 15.53848 33129 ft 521 kts 37°
2026-05-06 19:42 51.18362 15.57378 33483 ft 525 kts 37°
2026-05-06 19:43 51.21266 15.60941 33816 ft 528 kts 37°
2026-05-06 19:43 51.24146 15.64478 34122 ft 530 kts 37°
2026-05-06 19:43 51.27081 15.68087 34364 ft 533 kts 37°
2026-05-06 19:43 51.30013 15.71698 34738 ft 533 kts 37°
2026-05-06 19:44 51.32950 15.75324 35159 ft 532 kts 37°
2026-05-06 19:44 51.35872 15.78936 35522 ft 532 kts 37°
2026-05-06 19:44 51.38802 15.82565 35871 ft 532 kts 37°
2026-05-06 19:44 51.40779 15.85017 36100 ft 532 kts 37°
2026-05-06 19:45 51.42717 15.87423 36319 ft 532 kts 37°